Overview Statistics Trail Chart Weather Telemetry Raw packets
 

This is the latest recevied weather packets stored in our database for station/object N4BBA. If no packets are shown the sender has not sent any weather packets the latest 10 day(s).

<< 22 23 24 25 26 27 28 >>
Time Temp. Humidity Pressure Rain* Wind** Luminosity Snow
1777581256 21.11° C 59% 1008.8 hPa 0 mm - 180 W/m² -
1777580951 21.11° C 58% 1009 hPa 0 mm - 124 W/m² -
1777580645 21.67° C 57% 1008.7 hPa 0 mm - 144 W/m² -
1777580341 21.11° C 57% 1008.7 hPa 0 mm - 147 W/m² -
1777580037 21.67° C 56% 1008.9 hPa 0 mm - 119 W/m² -
1777579734 21.67° C 56% 1008.8 hPa 0 mm - 147 W/m² -
1777579431 21.67° C 55% 1008.7 hPa 0 mm - 163 W/m² -
1777579127 22.22° C 51% 1008.8 hPa 0 mm - 203 W/m² -
1777578826 22.78° C 53% 1008.7 hPa 0 mm - 264 W/m² -
1777578523 23.33° C 51% 1008.9 hPa 0 mm - 291 W/m² -
1777578217 23.89° C 51% 1008.7 hPa 0 mm - 820 W/m² -
1777577913 22.78° C 53% 1008.8 hPa 0 mm - 629 W/m² -
1777577609 22.22° C 53% 1008.9 hPa 0 mm - 694 W/m² -
1777577307 22.22° C 52% 1008.9 hPa 0 mm - 233 W/m² -
1777577002 22.78° C 52% 1008.4 hPa 0 mm - 728 W/m² -
1777576700 22.78° C 52% 1008.8 hPa 0 mm - 722 W/m² -
1777576398 22.78° C 52% 1008.7 hPa 0 mm - 728 W/m² -
1777576095 22.22° C 54% 1008.8 hPa 0 mm - 738 W/m² -
1777575791 22.22° C 55% 1008.7 hPa 0 mm - 742 W/m² -
1777575488 22.22° C 55% 1008.7 hPa 0 mm - 750 W/m² -
1777575183 22.22° C 56% 1008.7 hPa 0 mm - 758 W/m² -
1777574879 21.67° C 55% 1008.7 hPa 0 mm - 764 W/m² -
1777574577 21.67° C 56% 1008.5 hPa 0 mm - 773 W/m² -
1777574273 22.22° C 56% 1008.5 hPa 0 mm - 781 W/m² -
1777573968 22.78° C 58% 1008.4 hPa 0 mm - 784 W/m² -

* Rain latest hour (hover to see other rain measurements)
** Current wind speed in m/s (hover to see current wind gust speed)